Content
SEND FEEDBACK

Daily
Averages
Monthly
Summary
United States of America

AGAT, GUAM


Home > North America > United States > Guam
Elevation: 110 meters     Latitude: 13 33N     Longitude: 144 50E

WEATHER
 
SELECT A DAY
Number of Records: 213,057;   Date Range: 1/1/95 - 9/29/14
 
SHARE

PRINT THIS DATA

[ ← Previous Day ]
WEATHER ALMANAC - 25 OCTOBER, 2013
[ Next Day → ]
[ °F ]   °C
Weather ElementAverageHighLow
Temperature27.6 °C30 °C (10:54 am)25.6 °C (1:54 am)
Dewpoint25 °C26.1 °C (10:54 am)24.4 °C (1:54 am)
Humidity86.2 %94 % (6:54 am)74 % (11:54 am)
Barometer1009.1 hPa1011.5 hPa (9:54 pm)1006.8 hPa (1:54 am)
Wind Speed5.3 km/h16.7 km/h (12:54 pm)
Weather ElementAverage
Visibility16.1 km
Wind DirectionESE (118.8 °)

Weather ElementTotal
Precipitation---
Cooling Degree Days9.5 (Base 18.3)
Growing Degree Days17.8 (Base 10)
Averaged from 25 records on 25 October, 2013
WEATHER CONDITIONS BREAKOUT
WIND DIRECTION BREAKOUT
WEATHER BY HOUR - 25 OCTOBER, 2013
[ °F ]   °C
Local TimeTemperatureDewpointHumidityBarometerVisibilityWind DirectionWind SpeedGust SpeedPrecipitationEventsConditions
1:54 AM25.6 °C24.4 °C93 %1006.8 hPa16.1 kmCalmClear
2:54 AM26.1 °C24.4 °C90 %1006.8 hPa16.1 kmCalmMostly Cloudy
3:54 AM25.6 °C24.4 °C93 %1006.8 hPa16.1 kmCalmClear
4:54 AM25.6 °C24.4 °C93 %1007.1 hPa16.1 kmCalmClear
5:54 AM25.6 °C24.4 °C93 %1007.8 hPa16.1 kmCalmClear
6:54 AM26.1 °C25 °C94 %1008.8 hPa16.1 kmCalmPartly Cloudy
7:20 AM27 °C26 °C94 %1009.8 hPa16.1 kmCalmMostly Cloudy
7:30 AM27 °C26 °C94 %1010.2 hPa16.1 kmCalmPartly Cloudy
7:54 AM27.2 °C25.6 °C91 %1009.8 hPa16.1 kmCalmClear
8:54 AM28.9 °C25 °C79 %1010.2 hPa16.1 kmWSW (250°)11.1 km/hPartly Cloudy
9:54 AM28.3 °C25 °C82 %1010.2 hPa16.1 kmWest (280°)13 km/hPartly Cloudy
10:54 AM30 °C26.1 °C79 %1009.8 hPa16.1 kmWNW (290°)11.1 km/hScattered Clouds
11:54 AM30 °C25 °C74 %1009.1 hPa16.1 kmWest (280°)13 km/hPartly Cloudy
12:54 PM30 °C25.6 °C77 %1008.5 hPa16.1 kmNW (310°)16.7 km/hPartly Cloudy
1:54 PM30 °C25.6 °C77 %1008.1 hPa16.1 kmWNW (300°)13 km/hPartly Cloudy
2:54 PM30 °C25 °C74 %1007.8 hPa16.1 kmWNW (290°)13 km/hScattered Clouds
3:54 PM29.4 °C25 °C77 %1007.8 hPa16.1 kmWNW (290°)13 km/hPartly Cloudy
4:54 PM28.3 °C24.4 °C79 %1008.5 hPa16.1 kmWest (280°)13 km/hPartly Cloudy
5:54 PM27.2 °C24.4 °C85 %1009.1 hPa16.1 kmWNW (290°)7.4 km/hPartly Cloudy
6:54 PM27.2 °C25 °C88 %1009.5 hPa16.1 kmCalmScattered Clouds
7:54 PM26.7 °C25 °C90 %1010.2 hPa16.1 kmCalmPartly Cloudy
8:54 PM27.2 °C25 °C88 %1011.2 hPa16.1 kmCalmPartly Cloudy
9:54 PM26.7 °C25 °C90 %1011.5 hPa16.1 kmESE (110°)7.4 km/hPartly Cloudy
10:54 PM26.7 °C25 °C90 %1011.2 hPa16.1 kmCalmPartly Cloudy
11:54 PM26.1 °C24.4 °C90 %1010.8 hPa16.1 kmCalmClear
Hourly data recorded from PGUM, located 0 kilometers away from Agat, Guam







STORIES FROM OUR PARTNERS